Theta_e
313 312 313 315 321 325 324 326 333 326 327 320 320 324 326 326 327 326 326 322 324 328 326 328 328 329 329 329 332 333 329 316 329 328 324 323 323 322 316 316 318 319 327 333
314 313 313 315 321 326 321 325 328 326 325 325 328 325 329 328 328 329 327 329 327 328 327 329 330 335 336 336 331 330 329 326 329 329 326 326 327 327 320 314 314 317 331 339
314 314 314 315 324 327 323 328 333 325 320 321 329 329 329 329 329 328 329 329 328 328 327 328 335 337 336 335 335 348 328 322 326 328 328 325 332 333 331 318 318 318 323 341
314 314 314 315 323 327 325 323 328 327 329 327 326 327 328 332 334 331 329 331 332 331 332 333 333 332 332 332 336 331 322 326 326 326 330 332 332 334 338 344 340 334 332 340
313 314 314 314 321 328 327 323 324 323 327 326 327 323 328 328 328 329 329 327 328 331 330 330 330 328 329 331 331 329 325 331 332 330 331 332 334 336 338 346 348 345 336 342
315 313 313 313 315 325 325 326 325 324 328 327 328 328 327 327 326 327 327 326 326 326 332 327 325 324 324 326 328 329 326 325 328 330 332 331 335 335 339 347 348 345 342 341
319 314 313 313 313 318 322 324 323 325 330 329 331 328 328 327 325 327 327 326 326 325 323 322 323 325 324 325 324 321 325 328 326 330 329 335 332 334 340 344 345 347 346 345
324 319 314 313 313 316 324 323 322 321 326 329 328 328 327 327 324 326 328 329 327 321 321 322 325 326 327 329 328 327 324 328 331 333 335 334 336 336 338 337 346 342 341 342
324 323 317 313 313 314 322 323 322 321 324 326 324 325 324 324 324 325 325 326 325 324 322 325 330 330 330 332 334 330 329 326 329 333 338 340 335 338 339 338 350 340 339 338
323 324 322 317 313 313 318 323 321 321 321 321 322 323 324 323 325 325 325 325 327 324 322 325 327 327 328 339 341 340 334 332 334 334 334 338 338 336 335 334 339 337 341 338
322 323 323 319 314 312 313 321 320 321 318 318 321 324 325 323 322 325 323 327 326 327 330 330 332 337 338 338 338 339 335 335 334 334 337 337 339 336 339 337 336 336 341 339
322 322 322 322 316 312 312 314 319 320 319 318 322 323 323 323 323 319 319 323 323 326 328 328 329 332 335 337 339 334 335 333 338 335 334 335 332 334 334 335 333 335 336 337
321 322 322 322 318 314 311 313 317 319 316 318 320 323 326 326 325 324 321 321 322 322 322 325 326 330 331 336 336 335 333 332 332 334 335 335 333 335 335 335 336 333 335 335
320 320 321 321 319 315 313 312 319 319 318 320 322 323 321 324 324 323 324 322 322 320 320 324 326 328 324 327 330 334 333 330 331 331 331 334 335 335 335 333 335 335 334 336
320 317 319 321 321 318 316 318 320 321 319 320 319 320 323 323 323 323 325 324 320 321 323 324 325 323 326 324 327 334 330 329 331 331 333 334 333 333 336 335 334 331 333 333
319 317 316 318 318 319 316 318 321 322 321 318 320 318 319 323 325 325 326 324 321 322 323 323 323 323 325 328 328 326 328 329 329 331 330 330 333 334 333 336 335 333 332 331
319 316 316 316 316 317 315 318 323 319 318 317 320 320 320 325 324 323 322 324 324 324 324 325 325 326 324 326 330 325 327 329 330 330 327 326 330 332 332 333 332 333 333 334
315 316 315 316 316 316 316 320 319 317 318 317 320 321 322 324 324 325 321 324 322 323 325 324 324 323 325 329 326 325 326 331 330 327 324 327 330 333 334 335 336 338 338 338
313 314 315 314 314 314 320 319 317 316 318 321 324 324 326 320 322 323 324 322 326 323 326 324 325 326 329 327 327 327 326 331 330 330 327 328 333 335 336 337 338 339 339 342
314 314 314 314 318 320 318 318 316 318 317 315 321 318 322 318 320 324 324 324 327 329 327 325 328 327 325 324 323 325 327 328 329 333 334 337 336 335 336 336 337 340 343 343
313 312 313 318 319 318 319 322 323 321 322 317 316 316 319 317 322 324 323 326 326 330 328 332 331 331 328 325 325 323 327 325 331 330 332 332 332 332 333 335 336 339 340 342
313 315 319 320 317 317 322 325 321 323 325 320 320 320 318 319 321 323 324 328 326 331 326 333 333 330 335 333 328 327 327 328 333 332 331 330 330 330 329 331 334 334 338 343
314 316 318 319 319 321 324 324 326 324 322 321 322 325 321 321 322 323 326 330 329 324 327 334 331 336 334 333 334 332 332 331 330 329 329 329 328 328 330 327 327 328 329 340
315 316 315 321 324 321 321 320 321 320 323 322 323 325 324 323 325 324 331 328 326 330 331 333 336 335 333 332 332 333 331 328 327 327 327 327 327 327 327 327 326 326 329 334
316 316 317 316 316 316 318 318 318 320 321 323 324 326 325 326 328 328 328 331 332 331 335 334 333 333 332 330 330 329 328 328 326 326 326 327 327 327 327 327 327 326 327 328
314 316 318 316 316 317 315 316 316 319 321 324 324 328 329 329 326 329 331 332 335 335 331 327 328 330 330 332 330 329 328 328 328 328 328 329 329 328 328 328 327 327 327 326
314 314 312 314 316 316 315 314 322 321 324 327 327 330 329 325 329 328 326 330 327 325 322 320 321 325 325 328 330 329 330 329 329 329 329 329 329 328 327 324 327 326 325 325
Wind_Speed
34 37 39 42 44 35 12 4 3 13 18 3 0 2 5 7 5 6 5 5 6 5 3 5 7 6 5 15 3 6 5 6 2 5 4 2 3 4 5 5 5 2 4 5
35 37 40 41 44 32 6 2 2 7 8 2 4 7 8 1 3 4 5 6 4 2 5 5 10 9 12 22 7 3 3 3 4 10 9 9 7 7 4 2 4 6 5 5
35 37 40 40 39 25 4 2 4 5 4 1 2 4 6 8 9 7 4 6 8 5 9 7 5 12 8 13 12 12 6 3 6 5 6 5 8 14 12 2 4 1 5 5
34 36 38 39 37 19 6 4 1 1 3 5 8 3 7 11 8 5 15 8 14 5 7 6 9 5 8 16 9 12 5 1 2 1 3 4 6 11 11 11 5 5 5 9
33 34 36 37 37 15 9 3 3 4 4 5 5 8 6 11 8 7 6 5 10 6 6 2 6 5 5 6 9 8 6 3 2 5 6 6 6 14 7 10 13 3 4 2
30 32 32 34 34 23 8 8 6 3 5 7 6 5 5 8 6 3 4 4 4 7 2 4 5 6 5 8 5 6 1 2 3 5 3 4 5 5 8 9 16 6 7 8
26 29 30 29 29 26 9 10 3 3 4 4 2 7 7 10 8 3 7 7 3 6 6 4 6 7 8 8 9 7 4 3 2 3 5 2 4 2 12 18 15 14 11 15
22 25 27 28 26 23 13 16 6 2 2 4 6 9 7 6 9 7 4 6 4 8 6 4 6 6 7 5 8 7 3 5 3 3 1 3 3 4 4 2 5 10 8 13
18 21 23 25 25 23 11 16 17 2 2 4 5 4 4 2 4 8 5 8 9 5 3 4 1 3 3 4 2 9 7 7 4 2 2 3 4 7 6 3 1 6 6 9
15 17 20 22 23 22 15 10 20 3 1 4 4 2 3 2 3 2 4 8 8 5 3 1 2 3 3 2 3 4 4 4 4 2 3 4 4 8 8 5 3 3 2 3
12 14 16 18 19 20 18 4 16 8 2 6 4 2 1 4 1 2 4 4 5 4 5 3 3 2 2 3 2 1 2 2 1 1 1 5 3 4 4 4 4 3 5 3
11 11 13 14 16 18 16 5 12 15 5 6 9 23 29 17 16 4 2 5 3 2 3 2 1 2 3 2 1 3 1 4 3 5 5 3 4 4 3 5 4 4 5 4
12 10 11 12 13 15 16 12 14 12 3 6 3 2 10 9 18 18 3 3 3 2 4 3 2 1 2 1 3 1 1 2 2 3 3 4 7 2 5 7 10 5 5 4
13 10 9 11 11 12 15 13 6 5 3 2 6 13 9 10 14 16 24 11 1 2 3 2 2 1 2 3 4 4 4 4 3 5 7 5 4 3 9 9 8 7 12 9
12 11 10 9 10 12 15 8 1 3 2 2 5 25 9 14 10 15 7 7 3 1 1 1 2 2 1 2 1 3 5 7 4 5 5 3 5 5 9 9 6 5 1 5
13 9 9 10 10 11 7 3 2 2 3 1 4 7 7 13 7 14 6 5 3 3 4 3 3 4 2 2 2 5 4 5 8 5 8 7 7 7 10 13 14 12 9 9
12 8 6 8 9 9 3 4 3 1 3 1 4 5 5 6 6 3 2 3 3 4 3 3 4 4 4 3 6 7 7 9 7 5 4 5 2 4 6 12 13 15 21 12
9 7 4 7 8 11 8 4 6 11 3 1 2 4 5 3 2 1 2 2 2 2 3 2 3 2 1 4 7 9 9 9 7 8 7 5 2 6 3 7 6 3 7 7
7 4 2 4 3 2 1 1 3 11 2 2 2 3 4 6 3 2 3 3 0 2 2 3 3 2 4 7 7 6 6 8 7 8 8 7 2 7 4 6 7 6 7 8
8 4 1 2 4 4 2 1 1 0 1 2 3 2 4 3 3 3 2 1 2 1 4 2 3 4 9 8 9 8 7 8 8 8 4 4 5 3 5 4 4 5 5 6
6 4 3 3 5 2 2 2 3 3 3 4 4 6 3 2 3 3 2 2 2 1 5 5 3 4 6 7 11 8 9 8 9 7 7 8 5 3 4 6 7 8 7 4
12 4 1 3 2 0 2 3 3 4 4 4 4 5 5 4 3 2 2 2 2 5 3 1 2 4 7 4 6 7 8 8 7 12 9 8 8 9 7 7 8 13 18 10
6 3 3 4 3 4 6 7 4 3 3 4 4 2 4 2 2 1 2 1 5 2 2 3 3 4 7 7 5 7 8 11 9 8 14 15 12 13 10 6 10 14 16 13
3 5 4 5 5 5 6 4 3 5 2 3 4 4 3 2 2 3 3 4 1 3 2 1 2 4 6 6 4 5 5 8 9 8 12 11 10 8 12 8 11 13 14 17
4 4 6 7 6 3 3 4 4 6 4 3 2 3 3 1 2 3 1 3 4 3 1 2 2 1 4 5 6 8 7 6 6 6 7 9 8 6 8 15 18 16 17 13
2 4 3 4 3 4 3 4 5 3 3 1 3 1 2 2 3 4 7 3 1 2 2 4 6 7 6 4 5 6 5 8 7 8 7 6 5 5 10 15 19 18 18 21
4 4 4 4 3 4 3 2 3 2 2 2 3 2 6 1 2 3 0 3 4 3 1 2 4 7 9 8 4 5 4 3 2 2 4 4 6 9 12 8 19 19 23 22
Wind_Direction
6 5 4 6 2 0 2 13 48 177 162 47 167 245 215 290 354 9 9 41 42 359 321 6 28 337 349 351 112 127 229 152 354 216 261 290 250 251 148 131 249 200 162 270
7 7 6 8 6 357 0 58 273 192 178 11 330 302 300 272 25 358 21 23 39 336 2 16 47 354 352 357 355 129 343 20 24 347 358 351 25 340 270 102 92 181 141 260
9 9 7 9 9 6 85 63 29 337 31 186 301 309 317 352 347 22 13 22 5 4 19 37 44 5 345 349 20 1 28 99 140 181 224 241 8 3 348 46 71 198 213 127
11 12 10 11 13 21 21 28 335 160 306 333 332 321 14 20 359 34 24 27 2 28 15 20 0 14 340 337 11 360 60 87 62 171 242 69 74 17 21 42 279 135 248 158
13 14 13 14 16 21 52 62 34 344 303 302 1 7 349 37 350 29 358 41 343 38 56 62 324 352 32 268 325 357 352 322 105 336 348 54 67 33 25 21 337 331 105 66
14 16 16 16 19 33 47 352 331 103 287 340 31 349 14 23 9 332 25 343 4 341 304 292 270 241 228 230 244 293 143 53 29 302 326 39 35 355 52 67 14 352 14 342
12 15 17 17 21 26 40 11 319 47 298 26 345 329 5 356 350 282 311 357 349 283 301 336 351 324 298 287 266 182 265 97 89 215 16 54 215 331 99 92 38 27 33 5
8 12 15 16 17 23 45 29 20 45 320 303 335 3 17 6 350 357 343 343 257 296 38 28 -0 332 357 354 7 45 145 113 63 112 186 275 64 8 18 41 26 15 38 26
360 7 13 14 13 14 30 32 10 60 87 251 300 331 25 345 328 343 314 323 310 28 83 62 82 278 293 339 29 8 42 69 103 76 111 194 230 301 307 237 48 13 25 57
352 358 5 11 11 11 16 33 20 21 6 262 27 280 250 332 4 264 325 330 338 28 48 78 193 258 283 32 48 334 1 5 133 169 193 279 281 300 289 126 242 306 205 237
341 350 356 2 8 9 11 9 21 29 297 282 265 269 77 348 80 137 281 7 350 358 43 69 304 9 315 57 332 68 129 77 341 55 177 261 328 347 94 193 302 278 196 201
324 335 346 352 358 2 8 334 354 341 212 251 288 275 275 241 218 148 321 184 228 234 44 9 28 330 358 142 259 328 25 167 194 170 228 263 289 227 193 159 202 249 141 177
319 320 331 341 347 351 357 341 346 349 352 300 323 304 13 229 229 223 132 293 212 3 183 185 235 261 119 304 271 149 89 137 182 32 274 196 249 200 208 211 227 234 209 163
306 308 312 324 334 338 340 340 351 343 307 300 281 320 315 263 230 252 221 224 109 119 99 150 192 185 156 230 228 179 198 122 203 260 280 277 291 236 228 228 236 214 183 167
286 301 300 306 322 331 329 316 103 14 71 266 284 309 293 304 298 222 217 181 133 108 354 71 247 239 25 287 90 243 178 179 169 225 229 180 261 266 259 254 266 277 90 302
268 277 297 301 315 334 342 19 125 185 6 45 310 302 291 307 313 170 159 191 176 149 162 221 252 237 106 235 241 265 203 232 185 204 208 199 187 218 237 249 275 295 325 297
253 252 280 293 303 314 245 226 146 188 327 82 303 305 274 278 184 189 194 185 211 164 206 207 201 272 139 202 237 249 239 223 244 246 154 287 184 229 203 236 256 279 286 267
232 235 271 284 294 295 290 314 304 210 293 247 274 274 314 214 209 227 172 168 18 309 212 336 166 333 149 254 236 212 227 206 236 232 236 229 313 327 306 201 215 323 350 332
199 211 265 289 233 235 225 50 123 178 168 226 245 237 262 353 345 259 11 95 259 293 214 239 108 223 224 226 224 217 216 182 223 227 235 259 241 228 71 46 14 12 318 334
170 152 143 294 215 196 188 215 61 197 262 231 246 269 268 33 350 311 66 22 215 239 246 108 165 250 240 230 218 212 240 210 175 129 135 88 273 55 44 39 27 324 345 339
157 171 215 221 173 196 220 243 205 172 236 210 230 200 218 268 181 228 168 211 267 299 266 163 228 277 255 241 225 218 206 192 168 156 136 152 156 94 43 18 13 342 345 340
174 181 231 166 138 134 226 222 245 206 236 203 191 211 188 257 170 100 324 184 17 247 281 171 265 259 282 284 209 214 201 176 125 126 120 112 87 73 50 24 15 355 348 347
186 200 187 179 195 178 202 206 212 210 215 217 205 177 179 296 59 80 77 233 238 323 308 230 229 298 345 5 72 86 99 105 104 95 95 90 73 52 40 15 358 355 350 329
173 164 223 201 193 224 204 205 198 232 203 303 193 178 172 186 105 166 165 238 346 274 249 278 333 7 346 3 47 81 76 113 118 111 97 87 71 44 16 351 345 354 345 340
199 196 210 211 228 240 225 242 303 281 311 263 296 59 115 178 150 187 199 261 238 223 124 313 295 66 64 50 42 53 50 61 76 86 89 87 69 36 351 345 333 335 343 342
218 233 256 251 190 245 245 252 245 233 209 346 59 78 151 201 205 190 209 214 128 47 313 290 342 -0 1 23 79 87 74 74 65 62 68 68 41 358 327 324 326 331 340 335
203 229 231 261 244 236 239 338 345 132 94 159 113 238 218 296 220 227 356 108 160 205 254 325 18 360 348 337 341 3 13 13 346 336 323 305 304 308 310 312 311 319 325 324